Weather observations for the past three days for
Langley Air Force Base
Imperial (Metric)
Date Time (edt) Wind (mph) Vis. (mi.) Weather Sky Cond. Temperature (ºF) Relative Humidity Wind Chill (°F) Heat Index (°F) Pressure Precipitation (in)
Air Dwpt 6 hour altimeter (in) sea level (mb) 1 hr 3 hr 6 hr
Max. Min.
15 10:55 W 7 9.00 A Few Clouds FEW200 89.4 68.9 51% 94 29.97 1015.5
15 09:55 W 10 10.00 A Few Clouds FEW200 87.3 69.1 55% 92 29.97 1015.5
15 08:55 W 10 9.00 A Few Clouds FEW150 85.3 70.7 62% 90 29.98 1015.8
15 07:55 W 9 9.00 A Few Clouds FEW120 82.4 73.6 82.4 79.5 75% 88 29.97 1015.5
15 06:55 SW 12 10.00 A Few Clouds FEW120 80.6 73.4 79% 85 29.96 1015.2
15 05:55 SW 10 10.00 A Few Clouds FEW120 81 73.8 79% 86 29.95 1014.8
15 04:55 SW 10 10.00 Fair CLR 80.2 74.1 82% 85 29.95 1014.8
15 03:55 SW 10 10.00 Fair CLR 81 73.8 79% 86 29.94 1014.5
15 02:55 SW 10 10.00 Fair CLR 80.2 72.7 78% 84 29.94 1014.5
15 01:55 SW 12 10.00 Fair CLR 80.8 70.5 87.1 79.5 71% 84 29.96 1015.2
15 00:55 SW 12 10.00 Fair CLR 79.7 70.2 73% 83 29.97 1015.5
14 23:55 SW 6 10.00 Fair CLR 79.9 71.2 75% 83 29.97 1015.5
14 22:55 S 13 10.00 Fair CLR 80.6 70.3 71% 84 29.99 1016.2
14 21:55 S 12 10.00 Fair CLR 81.7 68.7 65% 85 29.99 1016.2
14 20:55 S 10 10.00 Fair CLR 83.7 68.2 60% 87 29.98 1015.8
14 19:55 S 10 10.00 Fair CLR 87.3 70.2 93.9 87.3 57% 92 29.98 1015.8
14 18:55 SE 8 10.00 Fair CLR 90.9 75.4 61% 102 29.99 1016.2
14 17:55 SE 8 10.00 Fair CLR 89.8 76.8 66% 103 29.97 1015.5
14 16:55 E 9 9.00 Fair CLR 91.9 75 58% 103 29.97 1015.5
14 15:55 SE 8 9.00 Fair CLR 92.3 74.3 56% 103 29.99 1016.2
14 14:55 SE 13 9.00 Fair CLR 93.9 72.3 50% 102 30.02 1017.2
14 13:55 S 6 9.00 Fair CLR 93.4 70.7 93.4 81.5 48% 100 30.04 1017.9
14 12:55 SE 8 10.00 Fair CLR 91.4 68.2 47% 96 30.06 1018.5
14 11:55 SE 8 9.00 Fair CLR 90.5 73.6 58% 100 30.07 1018.9
14 10:55 S 3 10.00 Fair CLR 89.2 74.8 63% 99 30.07 1018.9
14 09:55 Calm 10.00 Fair CLR 86.5 73.8 66% 95 30.07 1018.9
14 08:55 SW 3 10.00 Fair CLR 84.6 75.2 74% 93 30.08 1019.2
14 07:55 SW 3 10.00 Fair CLR 81.3 75.9 81.3 76.5 84% 88 30.07 1018.9
14 06:55 SW 3 10.00 Fair CLR 78.3 75.7 92% 81 30.06 1018.5
14 05:55 Calm 6.00 Fog/Mist CLR 77.7 75.7 94% 80 30.05 1018.2
14 04:55 SW 5 10.00 Fair CLR 78.1 76.1 94% 81 30.05 1018.2
14 03:55 W 6 7.00 Fair CLR 77.4 75.4 94% 79 30.06 1018.6
14 02:55 S 6 10.00 Fair CLR 79.3 77 93% 84 30.06 1018.6
14 01:55 S 6 10.00 Fair CLR 79.2 76.8 86.5 79 93% 84 30.07 1018.9
14 00:55 S 5 10.00 Fair CLR 80.2 77.4 91% 86 30.08 1019.2
13 23:55 S 5 10.00 Fair CLR 80.1 76.8 90% 86 30.09 1019.6
13 22:55 Calm 8.00 Mostly Cloudy BKN027 81.3 75.9 84% 88 30.1 1019.9
13 21:55 Calm 10.00 A Few Clouds FEW032 80.6 75.6 85% 86 30.09 1019.6
13 20:55 Calm 10.00 Fair CLR 82.4 75.9 81% 90 30.08 1019.2
13 19:55 NW 5 10.00 Partly Cloudy FEW035 SCT100 86.7 74.3 89.1 85.5 67% 95 30.08 1019.2
13 18:55 W 5 10.00 Partly Cloudy SCT030 88.7 75.7 66% 100 30.07 1018.9
13 17:55 W 9 10.00 Partly Cloudy FEW026 SCT055 87.1 76.1 70% 98 30.06 1018.6
13 16:57 S 10 10.00 Mostly Cloudy SCT030 BKN040 87.8 77 70% 100 30.07 1018.9
13 15:55 S 10 9.00 Partly Cloudy SCT030 87.1 76.5 71% 98 30.07 1018.9
13 14:55 S 13 10.00 Mostly Cloudy FEW024 SCT031 BKN043 BKN070 86.2 76.5 73% 97 30.08 1019.2
13 13:55 S 10 9.00 A Few Clouds FEW025 85.8 76.5 86.7 79.3 74% 96 30.1 1019.9 0.01
13 12:55 S 10 10.00 Partly Cloudy FEW017 SCT022 SCT065 83.8 77.4 81% 94 30.11 1020.2 0.01
13 11:55 S 8 9.00 Mostly Cloudy BKN019 BKN025 BKN032 85.3 76.5 75% 95 30.13 1020.9
13 10:55 W 8 9.00 Mostly Cloudy BKN018 BKN047 83.5 75.7 78% 92 30.13 1020.9
13 09:55 S 9 10.00 Overcast BKN013 OVC019 81.3 75.9 84% 88 30.14 1021.3
13 08:55 S 12 10.00 Mostly Cloudy BKN011 BKN050 79.9 75.6 87% 85 30.14 1021.3
13 07:55 S 9 10.00 Mostly Cloudy BKN009 BKN050 BKN150 79.2 75.6 79.7 74.8 89% 83 30.14 1021.3
13 06:55 S 5 9.00 Mostly Cloudy BKN010 78.6 75.4 90% 82 30.14 1021.3
13 05:55 S 5 9.00 Mostly Cloudy SCT009 BKN075 78.3 75.4 91% 81 30.13 1020.9
13 04:55 Calm 10.00 Partly Cloudy SCT010 SCT140 76.3 73.4 91% 77 30.13 1020.9
13 02:55 S 8 10.00 Partly Cloudy FEW060 SCT150 75.4 71.8 89% 75 30.14 1021.3
13 01:55 S 7 10.00 A Few Clouds FEW037 75.7 72.5 77 75.2 90% 76 30.16 1021.9 0.01
13 00:55 S 7 10.00 Partly Cloudy SCT011 75.7 72.9 91% 75 30.17 1022.3
12 23:55 SW 5 10.00 A Few Clouds FEW150 75.9 72.7 90% 76 30.17 1022.3
12 22:55 S 3 10.00 Fair CLR 76.3 73.4 91% 77 30.17 1022.3 0.01
12 21:55 S 3 8.00 Overcast OVC035 75.9 73 91% 76 30.17 1022.3 0.01
12 20:55 Calm 10.00 Overcast OVC055 76.8 74.3 92% 78 30.17 1022.3
12 19:55 SE 6 9.00 Light Drizzle OVC055 76.1 73.9 79 73.4 93% 76 30.17 1022.3 0.01 1.16
12 18:55 Calm 6.00 Light Rain Fog/Mist OVC035 75.6 72.7 91% 75 30.16 1021.9 0.1
12 17:55 NW 5 4.00 Thunderstorm in Vicinity Rain Fog/Mist FEW007 OVC038 75.2 72.3 91% 74 30.16 1021.9 0.96
12 16:55 Calm 0.25 Thunderstorm Light Drizzle SCT500 BKN012 OVC018 76.8 72.9 88% 78 30.17 1022.3 0.07 0.09
12 15:55 E 7 9.00 Mostly Cloudy BKN040 BKN100 77 72.9 87% 78 30.13 1020.9 0.01
12 14:55 E 3 10.00 Partly Cloudy SCT036 77 74.1 91% 78 30.15 1021.6 0.01
12 13:57 NW 8 4.00 Thunderstorm Light Rain SCT029CB BKN040 BKN048 75.7 72.9 88.7 73 91% 75 30.14 1021.3 0.56 0.57
12 13:55 NW 8 8.00 Thunderstorm Light Rain BKN028 BKN041 75 71.8 88.7 73 90% 74 30.14 1021.3 0.56 0.57
12 12:55 S 16 G 21 4.00 Thunderstorm Light Rain BKN033CB 79.5 73 81% 83 30.12 1020.6 0.01
12 11:55 S 10 8.00 Partly Cloudy SCT065 SCT190 87.8 74.5 65% 97 30.12 1020.6
Date Time (edt) Wind (mph) Vis. (mi.) Weather Sky Cond. Air Dwpt Max. Min. Relative Humidity Wind Chill (°F) Heat Index (°F) altimeter (in) sea level (mb) 1 hr 3 hr 6 hr
6 hour
Temperature (ºF) Pressure Precipitation (in)